Flag for Canada Weather past 2 weeks in Greater Sudbury, Ontario, Canada

Now
55 °F

Mostly cloudy.


Feels Like: 52 °F
Forecast: 56 / 66 °F
Wind: 13 mph from North

Location: Sudbury

Current Time: Jul 7, 2015 at 2:38:09 PM

Latest Report: Jul 7, 2015 at 2:00 PM


Visibility: 12 mi

Pressure: 29.85 "Hg

Humidity: 100%

Dew point: 55 °F

Location of Greater SudburyLocation

Historic Weather in Greater Sudbury — Graph

°F

Greater Sudbury temperature yesterday

Maximum temperature yesterday: 79 °F (at 1:00 PM)
Minimum temperature yesterday: 55 °F (at 4:00 AM)
Average temperature yesterday: 67 °F

Past Weeks' High & Low Weather Summary

 TemperatureHumidityPressure
High79 °F (Jun 29, 2:00 PM)100% (Jun 23, 1:00 AM)30.15 "Hg (Jun 23, 1:00 AM)
Low43 °F (Jul 2, 5:00 AM)27% (Jun 26, 1:00 PM)29.49 "Hg (Jun 23, 6:00 AM)
Average64 °F69%29.93 "Hg
* Reported Jun 22 1:00 PM — Jul 7 1:00 PM, Greater Sudbury, Weather by CustomWeather, © 2015

Note: Actual official high and low records may vary slightly from our data, if they occured in-between our weather recording intervals... More about our weather records

Advertising

Greater Sudbury weather history for previous 24 hours

 ConditionsComfort  
Time TempWeatherWind HumidityBarometerVisibility
1:00 PM
Tue, Jul 7
57 °FLight rain. Fog.14 mph94%29.83 "Hg2 mi
12:00 PM57 °FLight rain. More clouds than sun.15 mph94%29.81 "Hg8 mi
11:00 AM57 °FLight rain. Fog.15 mph94%29.78 "Hg5 mi
10:00 AM59 °FLight rain. Fog.12 mph94%29.77 "Hg2 mi
9:00 AM63 °FLight rain. Fog.13 mph94%29.75 "Hg5 mi
8:51 AM64 °FLight rain. Fog.12 mph94%29.75 "Hg2 mi
8:00 AM64 °FLight rain. Fog.10 mph94%29.74 "Hg1 mi
7:00 AM64 °FLight rain. Fog.14 mph94%29.74 "Hg1 mi
6:00 AM64 °FLight rain. Fog.16 mph94%29.74 "Hg3 mi
5:00 AM64 °FLight rain. Overcast.14 mph94%29.74 "Hg10 mi
3:00 AM64 °FOvercast.15 mph83%29.77 "Hg15 mi
2:00 AM64 °FOvercast.14 mph83%29.79 "Hg15 mi
1:00 AM64 °FOvercast.10 mph78%29.82 "Hg15 mi
12:00 AM66 °FOvercast.15 mph73%29.83 "Hg15 mi
11:00 PM
Mon, Jul 6
64 °FOvercast.9 mph83%29.86 "Hg15 mi
10:00 PM66 °FBroken clouds.8 mph73%29.88 "Hg15 mi
9:00 PM70 °FPartly sunny.9 mph64%29.89 "Hg20 mi
8:00 PM72 °FOvercast.13 mph61%29.92 "Hg20 mi
7:00 PM73 °FOvercast.13 mph50%29.93 "Hg20 mi
6:00 PM75 °FOvercast.16 mph47%29.95 "Hg10 mi
5:00 PM77 °FOvercast.18 mph51%29.95 "Hg15 mi
4:00 PM79 °FOvercast.21 mph51%29.96 "Hg15 mi
3:00 PM79 °FOvercast.23 mph54%29.96 "Hg15 mi
2:00 PM79 °FOvercast.21 mph54%29.97 "Hg15 mi
Weather by CustomWeather, © 2015

See weather overviewHow to use our weather pages